Date String (YYYY-MM-DD hh:mm:ss) UTC,Instrument flags,absolute air pressure of the measurement (hPa),sample flow rate (lpm),inlet stack bypass flow (lpm),air temperature of the measurement (°C),ambient temperature measured by the external sensor (°C),aerosol sample conditioner tube jacket temperature (°C),OPC LED temperature (°C),internal box temperature (°C),relative humidity of the measurement (%),span deviation,mass concentration of particles derived from Lorenz-Mie calculation of OPC scattering (μg/m³),mass concentration of particles derived from Lorenz-Mie calculation of OPC scattering (μg/m³),mass concentration of particles derived from Lorenz-Mie calculation of OPC scattering (μg/m³)
DateTimeUTC,F1_M11,P_M11,Q1_M11,Q2_M11,T1_M11,T2_M11,T3_M11,T4_M11,T5_M11,U1_M11,ZSPAN_M11,X0_M11,X2_M11,X1_M11
2023-07-23 10:00:00,SystemResetWarning,0833.7,5.00,000.00,029.4,026.8,000.0,038.0,030.8,19.0,0000.4,0010.64,0007.79,0007.42
2023-07-23 10:01:00,SystemResetWarning,0833.7,4.99,000.00,029.4,027.1,000.0,038.0,030.8,19.1,0000.7,0010.56,0007.75,0007.39
2023-07-23 10:02:00,SystemResetWarning,0833.7,5.00,000.00,029.4,027.3,000.0,038.0,030.9,19.5,0000.9,0010.58,0007.71,0007.34
2023-07-23 10:03:00,SystemResetWarning,0833.7,5.00,000.00,029.4,027.5,000.0,038.0,030.9,19.4,0000.0,0010.56,0007.67,0007.31
2023-07-23 10:04:00,SystemResetWarning,0833.7,4.99,000.00,029.4,027.6,000.0,038.0,030.9,19.0,0000.0,0010.81,0007.63,0007.28
2023-07-23 10:05:00,SystemResetWarning,0833.7,5.00,000.00,029.4,027.8,000.0,038.0,031.0,19.0,0000.0,0010.97,0007.60,0007.25
2023-07-23 10:06:00,SystemResetWarning,0833.7,5.01,000.00,029.5,027.9,000.0,038.0,031.0,19.2,0000.0,0010.90,0007.56,0007.20
2023-07-23 10:07:00,SystemResetWarning,0833.7,5.01,000.00,029.5,028.0,000.0,038.0,031.0,19.3,0000.0,0010.88,0007.55,0007.19
2023-07-23 10:08:00,SystemResetWarning,0833.7,5.00,000.00,029.5,028.0,000.0,038.0,031.1,19.4,0000.0,0010.84,0007.56,0007.20
2023-07-23 10:09:00,SystemResetWarning,0833.7,5.01,000.00,029.5,028.1,000.0,038.0,031.1,19.3,0000.0,0010.71,0007.57,0007.19
2023-07-23 10:10:00,SystemResetWarning,0833.7,4.99,000.00,029.5,028.1,000.0,038.0,031.1,19.1,0000.0,0010.65,0007.59,0007.20
2023-07-23 10:11:00,SystemResetWarning,0833.7,4.99,000.00,029.6,028.2,000.0,038.0,031.1,19.6,0000.0,0010.74,0007.61,0007.21
2023-07-23 10:12:00,SystemResetWarning,0833.7,5.00,000.00,029.6,028.2,000.0,038.0,031.2,18.9,0000.0,0011.02,0007.65,0007.22
2023-07-23 10:13:00,SystemResetWarning,0833.7,5.00,000.00,029.6,028.3,000.0,038.0,031.2,18.8,0000.0,0011.09,0007.67,0007.23
2023-07-23 10:14:00,SystemResetWarning,0833.7,5.00,000.00,029.6,028.3,000.0,038.0,031.2,18.7,0000.0,0011.05,0007.65,0007.22
2023-07-23 10:15:00,SystemResetWarning,0833.7,5.01,000.00,029.6,028.3,000.0,038.1,031.2,18.5,0000.0,0010.99,0007.63,0007.20
2023-07-23 10:16:00,SystemResetWarning,0833.7,4.99,000.00,029.7,028.3,000.0,038.1,031.2,18.2,0000.0,0011.25,0007.62,0007.19
2023-07-23 10:17:00,SystemResetWarning,0833.7,4.99,000.00,029.7,028.4,000.0,038.1,031.3,18.2,0000.0,0011.33,0007.61,0007.18
2023-07-23 10:18:00,SystemResetWarning,0833.6,4.99,000.00,029.7,028.4,000.0,038.1,031.3,18.2,0000.0,0011.25,0007.58,0007.17
2023-07-23 10:19:00,SystemResetWarning,0833.6,4.99,000.00,029.7,028.4,000.0,038.1,031.3,18.2,0000.0,0011.19,0007.54,0007.15
2023-07-23 10:20:00,SystemResetWarning,0833.7,5.01,000.00,029.7,028.4,000.0,038.2,031.3,18.3,0000.0,0011.26,0007.49,0007.11
2023-07-23 10:21:00,SystemResetWarning,0833.7,5.01,000.00,029.8,028.5,000.0,038.2,031.3,18.3,0000.0,0011.46,0007.45,0007.09
2023-07-23 10:22:00,SystemResetWarning,0833.6,5.01,000.00,029.8,028.5,000.0,038.2,031.4,18.1,0000.0,0011.38,0007.41,0007.06
2023-07-23 10:23:00,SystemResetWarning,0833.7,5.00,000.00,029.8,028.5,000.0,038.2,031.4,18.4,0000.0,0011.05,0007.34,0007.02
2023-07-23 10:24:00,SystemResetWarning,0833.7,5.00,000.00,029.8,028.5,000.0,038.2,031.4,17.9,0000.0,0010.89,0007.30,0006.99
2023-07-23 10:25:00,SystemResetWarning,0833.7,5.00,000.00,029.8,028.5,000.0,038.2,031.4,18.2,0000.0,0010.89,0007.29,0006.99
2023-07-23 10:26:00,SystemResetWarning,0833.7,4.99,000.00,029.8,028.6,000.0,038.3,031.4,18.5,0000.0,0011.04,0007.31,0006.98
2023-07-23 10:27:00,SystemResetWarning,0833.7,5.00,000.00,029.9,028.6,000.0,038.3,031.4,18.4,0000.0,0010.39,0007.30,0006.96
2023-07-23 10:28:00,SystemResetWarning,0833.7,5.01,000.00,029.9,028.6,000.0,038.3,031.5,18.3,0000.0,0010.11,0007.28,0006.97
2023-07-23 10:29:00,SystemResetWarning,0833.8,5.00,000.00,029.9,028.6,000.0,038.3,031.5,18.5,0000.0,0010.18,0007.27,0006.96
2023-07-23 10:30:00,SystemResetWarning,0833.8,5.00,000.00,029.9,028.6,000.0,038.3,031.5,18.7,0000.0,0010.32,0007.26,0006.94
2023-07-23 10:31:00,SystemResetWarning,0833.7,4.99,000.00,029.9,027.5,000.0,038.3,031.4,18.0,0000.0,0010.35,0007.27,0006.92
2023-07-23 10:32:00,SystemResetWarning,0833.7,5.00,000.00,029.8,025.6,000.0,038.1,031.1,17.9,0000.0,0010.69,0007.27,0006.92
2023-07-23 10:33:00,SystemResetWarning,0833.7,5.01,000.00,029.7,025.0,000.0,038.0,030.9,18.3,0000.0,0010.75,0007.30,0006.91
2023-07-23 10:34:00,SystemResetWarning,0833.7,5.01,000.00,029.6,025.3,000.0,038.1,030.7,21.6,0000.3,0010.85,0007.31,0006.91
2023-07-23 10:35:00,SystemResetWarning,0833.7,5.00,000.00,029.5,025.7,000.0,038.1,030.7,22.0,0000.5,0010.90,0007.33,0006.91
2023-07-23 10:36:00,SystemResetWarning,0833.7,5.00,000.00,029.5,026.1,000.0,038.1,030.8,20.5,0000.0,0010.80,0007.33,0006.90
2023-07-23 10:37:00,SystemResetWarning,0833.8,4.99,000.00,029.5,026.5,000.0,038.1,030.8,20.2,0000.0,0010.63,0007.30,0006.89
2023-07-23 10:38:00,SystemResetWarning,0833.8,5.01,000.00,029.4,026.9,000.0,038.1,030.9,20.0,0000.0,0010.72,0007.28,0006.88
2023-07-23 10:39:00,SystemResetWarning,0833.8,5.00,000.00,029.4,027.2,000.0,038.1,030.9,19.5,0000.0,0010.78,0007.30,0006.86
2023-07-23 10:40:00,SystemResetWarning,0833.8,5.00,000.00,029.5,027.4,000.0,038.1,031.0,19.1,0000.0,0010.71,0007.28,0006.83
2023-07-23 10:41:00,SystemResetWarning,0833.8,4.99,000.00,029.5,027.6,000.0,038.0,031.0,19.1,0000.0,0010.52,0007.25,0006.82
2023-07-23 10:42:00,SystemResetWarning,0833.8,5.00,000.00,029.5,027.7,000.0,038.0,031.0,19.2,0000.0,0010.44,0007.23,0006.82
2023-07-23 10:43:00,SystemResetWarning,0833.8,4.99,000.00,029.5,027.9,000.0,038.0,031.1,19.2,0000.0,0009.91,0007.24,0006.81
2023-07-23 10:44:00,SystemResetWarning,0833.8,5.00,000.00,029.5,028.0,000.0,038.0,031.1,18.6,0000.0,0009.81,0007.21,0006.80
2023-07-23 10:45:00,SystemResetWarning,0833.7,4.99,000.00,029.5,028.1,000.0,038.0,031.1,18.6,0000.0,0009.81,0007.18,0006.78
2023-07-23 10:46:00,SystemResetWarning,0833.8,5.01,000.00,029.6,028.2,000.0,038.1,031.2,19.0,0000.0,0009.84,0007.14,0006.76
2023-07-23 10:47:00,SystemResetWarning,0833.8,5.01,000.00,029.6,028.2,000.0,038.1,031.2,18.7,0000.0,0009.95,0007.13,0006.73
2023-07-23 10:48:00,SystemResetWarning,0833.8,5.00,000.00,029.6,028.3,000.0,038.1,031.2,18.1,0000.0,0010.17,0007.10,0006.69
2023-07-23 10:49:00,SystemResetWarning,0833.8,4.99,000.00,029.6,028.3,000.0,038.1,031.2,17.6,0000.0,0010.16,0007.07,0006.66
2023-07-23 10:50:00,SystemResetWarning,0833.8,4.99,000.00,029.7,028.4,000.0,038.1,031.2,17.3,0000.0,0010.08,0007.01,0006.63
2023-07-23 10:51:00,SystemResetWarning,0833.8,5.00,000.00,029.7,028.4,000.0,038.1,031.3,17.0,0000.0,0010.09,0007.02,0006.62
2023-07-23 10:52:00,SystemResetWarning,0833.7,5.01,000.00,029.7,028.4,000.0,038.1,031.3,16.9,0000.0,0010.20,0007.05,0006.61
2023-07-23 10:53:00,SystemResetWarning,0833.8,5.01,000.00,029.7,028.5,000.0,038.2,031.3,17.0,0000.0,0010.20,0007.04,0006.59
2023-07-23 10:54:00,SystemResetWarning,0833.8,5.01,000.00,029.7,028.5,000.0,038.2,031.3,18.0,0000.0,0010.12,0007.00,0006.56
2023-07-23 10:55:00,SystemResetWarning,0833.8,4.98,000.00,029.8,028.5,000.0,038.2,031.4,18.0,0000.0,0010.11,0006.99,0006.54
2023-07-23 10:56:00,SystemResetWarning,0833.8,5.00,000.00,029.8,028.6,000.0,038.2,031.4,17.8,0000.0,0010.02,0006.96,0006.51
2023-07-23 10:57:00,SystemResetWarning,0833.8,5.01,000.00,029.8,028.6,000.0,038.2,031.4,18.4,0000.0,0009.86,0006.92,0006.48
2023-07-23 10:58:00,SystemResetWarning,0833.8,5.01,000.00,029.8,028.6,000.0,038.2,031.4,19.4,0000.0,0009.74,0006.85,0006.46
2023-07-23 10:59:00,SystemResetWarning,0833.8,4.98,000.00,029.8,028.6,000.0,038.3,031.4,19.6,0000.0,0009.50,0006.83,0006.46
